www.pogodaiklimat.ru

Погода и климат >> Архив погоды >> Индия >> Jhansi


ПОГОДА в Jhansi

  • Прогноз погоды в Jhansi
  • Монитор погоды в Jhansi
  • Климат города

АРХИВ ПОГОДЫ в Jhansi

Время (UTC), дата Ветер
(напр.,м/с)
 
Видим.   Явления Облачность Т
(С)
Тd
(С)
f
(%)
Тe
(С)
Тes
(С)
Комфортность P
(гПа)
Po
(гПа)
Тmin
(С)
Tmax
(С)
R
(мм)
R24
(мм)
S
(см)
06 17.06 З 2 4000 м 4/3 1050 м
[Cu hum Ac trans]
+39.0 +18.5 30 +43 +56 опасность
перегрева
1001.4 1001.0
09 17.06 З 2 4000 м 5/3 1050 м
[Cu hum Ac trans]
+41.0 +18.5 27 +44 +54 опасность
перегрева
1000.1 1000.0
12 17.06 З 2 4000 м 4/3 1050 м
[Cu hum Ac trans]
+41.2 +18.8 28 +45 +47 опасность
перегрева
997.3 997.0 +42.0
03 18.06 З 2 4000 м ясно +35.8 +19.2 38 +41 +50 опасность
перегрева
1000.6 1001.0 +30.5 +42.0
06 18.06 З 3 4000 м 5/3 1050 м
[Cu hum Ac trans]
+39.4 +17.8 28 +42 +53 опасность
перегрева
1000.8 1001.0
09 18.06 З 3 4000 м 5/3 1050 м
[Cu hum Ac trans]
+42.0 +17.4 24 +45 +52 опасность
перегрева
997.8 998.0
12 18.06 ЮЗ 2 4000 м мгла {морось} 8/5 900 м
[Cb calv Ac trans]
+33.0 +17.8 40 +37 +38 очень
душно
998.8 999.0 +42.4 0.0
03 19.06 З 1 4000 м 5/0
[Ac trans Ci fib]
+33.0 +21.5 51 +41 +49 опасность
перегрева
1002.4 1002.0 +28.3 +42.4 0.0
06 19.06 СЗ 4 4000 м 3/0
[Ac trans]
+39.6 +17.3 27 +42 +55 опасность
перегрева
1001.2 1001.0
09 19.06 СЗ 3 4000 м 5/3 1050 м
[Cu hum Ac trans]
+41.4 +18.2 26 +45 +52 опасность
перегрева
999.5 1000.0
12 19.06 С 2 4000 м 4/3 1050 м
[Cu hum Ac trans]
+41.4 +18.2 26 +45 +46 опасность
перегрева
996.6 997.0 +42.5
03 20.06 СЗ 2 4000 м мгла 6/3 1050 м
[Cu hum Ac trans]
+33.0 +19.7 46 +39 +44 очень
душно
1003.5 1004.0 +31.0 +42.5
06 20.06 СЗ 2 4000 м мгла 6/0
[Ac trans Ci fib]
+38.0 +18.3 32 +42 +59 опасность
перегрева
1003.2 1003.0
09 20.06 З 2 4000 м 4/0
[Ac trans Ci fib]
+41.2 +18.4 27 +45 +59 опасность
перегрева
1000.1 1000.0
12 20.06 З 2 4000 м 3/1 1050 м
[Cu hum Ac trans]
+42.0 +18.3 26 +46 +48 опасность
перегрева
998.0 998.0 +42.6
03 21.06 З 2 4000 м 3/0
[Ci fib]
+36.6 +20.7 40 +43 +52 опасность
перегрева
1001.7 1002.0 +32.2 +42.6
06 21.06 З 1 4000 м 3/0
[Ac trans]
+42.2 +17.7 24 +45 +65 опасность
перегрева
1000.4 1000.0
09 21.06 З 2 4000 м 5/3 1050 м
[Cu hum Ac trans]
+45.6 +14.4 17 +46 +56 опасность
перегрева
998.2 998.0
12 21.06 СВ 2 4000 м 5/3 1050 м
[Cu hum Ac trans]
+41.2 +16.6 24 +43 +45 опасность
перегрева
996.6 997.0 +45.7
03 22.06 З 3 4000 м 4/0
[]
+37.0 +19.3 36 +42 +48 опасность
перегрева
1001.3 1001.0 +33.1 +45.7
06 22.06 штиль 0 50 км мгла ?/? +41.0 +18.9 28 +45 +45 опасность
перегрева
1000.9 1001.0
12 22.06 СЗ 2 4000 м 5/3 1050 м
[Cu hum Ac trans]
+40.0 +19.1 30 +44 +46 опасность
перегрева
996.6 997.0 +44.0
03 23.06 ЮЗ 2 4000 м 3/0
[Ci fib]
+33.4 +22.0 51 +42 +51 опасность
перегрева
1001.5 1002.0 +27.6 +44.0 3
06 23.06 З 3 4000 м 4/0
[Ac trans Ci fib]
+40.0 +19.5 31 +45 +60 опасность
перегрева
1000.4 1000.0
09 23.06 СЗ 2 4000 м 5/0
[Ac trans Ci fib]
+43.2 +21.6 29 +50 +62 опасность
перегрева
997.5 998.0
12 23.06 ЮЗ 2 4000 м 5/3 1050 м
[Cu hum Ac trans]
+42.8 +18.7 25 +46 +48 опасность
перегрева
995.0 995.0 +44.2

 

Местоположение метеостанции Jhansi (Uttar Pradesh, Индия): широта 25.45 долгота 78.62 высота над уровнем моря 258 м.

В архиве по умолчанию представлена погода в Jhansi за последнюю неделю. Архивные данные за месяц целиком и за предыдущие месяцы, начиная с января 2011 года, Вы можете получить, выбрав интересующий диапазон дат из раскрывающегося списка и нажав кнопку "Ввод!".


*Определитесь, кто Вы:
робот инопланетянин человек

Внимание! Время в таблицах - всемирное. Для получения местного времени необходимо прибавить поправку, которая в Jhansi равна 5.5 ч.

Смотрите также архив погоды в соседних городах и на ближайших метеорологических станциях:

Погода в Tikamgarh (Madhya Pradesh, Индия) (79 км)
Погода в Nowgong (Madhya Pradesh, Индия) (94 км)
Погода в Gwalior (Madhya Pradesh, Индия) (94 км)
Погода в Shivpuri (Madhya Pradesh, Индия) (98 км)
Погода в Khajuraho (Madhya Pradesh, Индия) (141 км)
Погода в Guna (Madhya Pradesh, Индия) (158 км)
Погода в Hamirpur (Uttar Pradesh, Индия) (163 км)
Погода в Banda (Uttar Pradesh, Индия) (176 км)
Погода в Sagar (Madhya Pradesh, Индия) (178 км)
Погода в Sheopur (Madhya Pradesh, Индия) (196 км)

Пояснения к столбцам:

Ветер - указаны скорость ветра в м/с - средняя за 10 мин, порывы в срок и между сроками (в фигурных скобках) и направление, откуда дует ветер: С - северный, СВ - северо-восточный, В - восточный, ЮВ - юго-восточный, Ю - южный, ЮЗ - юго-западный, З - западный, СЗ - северо-западный.
Видимость - горизонтальная дальность видимости в метрах или километрах. При видимости от 1 до 10 км при отсутствии осадков обычно наблюдается дымка, при ухудшении видимости до 1 км и менее - туман. В сухую погоду видимость может ухудшаться дымом, пылью или мглою.
Явления - указаны атмосферные явления, наблюдавшиеся в срок или в последний час перед сроком; фигурными скобками обозначены явления, наблюдавшиеся между сроками (за 1-3 часа до срока); квадратными скобками обозначены град или гололедные отложения с указанием их диаметра в мм.
Облачность - указаны через наклонную черту общая и нижняя облачность в баллах и высота нижней границы облаков в метрах; квадратными скобками обозначены формы облаков: Ci - перистые, Cs - перисто-слоистые, Cc - перисто-кучевые, Ac - высококучевые, As - высокослоистые, Sc - слоисто-кучевые, Ns - слоисто-дождевые, Cu - кучевые, Cb - кучево-дождевые. Подробнее классификацию облаков см. в Атласе облаков (PDF).
T - Температура воздуха - температура, измеренная на высоте 2 м над землей.
Td - Температура точки росы - температура, при понижении до которой содержащийся в воздухе водяной пар достигнет насыщения.
f - Относительная влажность воздуха - влажноcть воздуха, измеренная на высоте 2 м над землей.
Te - Эффективная температура - температура, которую ощущает одетый по сезону человек в тени. Характеристика душности погоды. При расчете учитывается влияние влажности воздуха и скорости ветра на теплоощущения человека.
Tes - Эффективная температура на солнце - температура, которую ощущает человек, с поправкой на солнечный нагрев. Характеристика знойности погоды. Зависит от высоты солнца над горизонтом, облачности и скорости ветра. Ночью, в пасмурную погоду, а также при ветре 12 м/с и более поправка равна нулю.
P - Атмосферное давление - приведенное к уровню моря атмосферное давление.
Po - Атмосферное давление - измеренное на уровне метеостанции атмосферное давление.
Tmin - Минимальная температура - минимум температуры воздуха на высоте 2 м над землей.
Tmax - Максимальная температура - максимум температуры воздуха на высоте 2 м над землей.
R - Количество осадков - Количество выпавших осадков за период времени, мм. При наведении курсора мыши на число - период времени, за который выпало указанное количество осадков.
R24 - Количество осадков - Количество выпавших осадков за 24 часа, мм.
S - Снежный покров - Высота снежного покрова, см. При наведении курсора мыши на число - состояние снежного покрова и степень покрытия местности в баллах.